Location: Academy of Saint Joseph (historical)
(40.7729°N, 73.2407°W)
Time: 22:40:18
(UTC+00:00)

Daily predictions for brighter satellites

Satellite Brightness Start Highest point End
(mag) Time Altitude Azimuth Time Altitude Azimuth Time Altitude Azimuth
GP-B 3.1 23:14:21 10° N 23:18:48 77° E 23:23:15 10° S
Tsikada Rocket 4.0 23:12:53 10° N 23:19:04 79° E 23:25:14 10° S
SKYMED 2 4.2 23:15:22 10° N 23:19:41 63° WNW 23:23:58 10° SSW
Okean 2 3.7 23:20:14 10° N 23:24:17 47° E 23:28:17 10° SSE
CSL-04 Debris 4.4 23:22:13 10° SE 23:27:24 51° ENE 23:32:37 10° N
Meteor 1-21 4.5 23:24:18 10° N 23:29:43 48° ENE 23:35:05 10° SSE
Cosmos 1898 Rocket 3.5 23:25:00 10° SSW 23:30:09 85° ESE 23:35:22 10° NNE
Cosmos 1975 2.8 23:31:06 10° S 23:35:10 80° E 23:39:16 10° N
Cosmos 1603 3.7 23:30:47 10° NNW 23:36:27 65° ENE 23:42:01 10° SSE
CSL-04 Rocket 3.8 23:31:32 10° SSE 23:36:50 59° ENE 23:42:13 10° N
CZ-4 R/B 1.7 23:32:48 10° S 23:37:01 78° WSW 23:41:15 10° NNW
Cosmos 1782 Rocket 3.5 23:33:59 10° S 23:38:20 67° E 23:42:45 10° NNE
Cosmos 1908 Rocket 4.2 23:36:15 10° SSW 23:40:32 60° W 23:44:53 10° N
NOSS 2-2 (C) 3.3 23:37:21 10° SSW 23:40:43 46° ESE 23:44:15 10° NE
Cosmos 1544 4.1 23:38:06 10° SSW 23:41:40 50° W 23:45:15 10° N
Cosmos 858 Rocket 4.4 23:37:56 10° SSW 23:43:09 79° ESE 23:48:23 10° NNE
Cosmos 1025 Rocket 4.4 23:40:59 10° NNE 23:44:20 21° ENE 23:46:55 13° ESE
CZ-2C R/B 2.1 23:42:27 10° SW 23:45:33 27° S 23:47:43 15° ESE
Cosmos 372 Rocket 4.4 23:43:29 10° S 23:48:22 41° ESE 23:53:16 10° NNE
Cosmos 807 4.1 23:45:39 10° S 23:48:38 80° E 23:52:06 10° N
Cosmos 1842 3.3 23:50:35 10° N 23:54:27 79° W 23:58:20 10° S
